Location: Bonneuil
(46.1010°N, 2.9693°E)
Time: 15:52:10
(UTC+00:00)

Cosmos 1814 Rocket - Pass Details

Date: 09 April 2020
Orbit: 744 x 787 km, 74.1° (Epoch: 27 May)

Event Time Altitude Azimuth Distance (km) Brightness Sun altitude
Rises 21:38:55 0° 336° (NNW) 3,289 8.4 -28.5°
Reaches altitude 10° 21:41:19 10° 334° (NNW) 2,358 7.4 -28.8°
Enters shadow 21:46:10 64° 286° (WNW) 871 4.3 -29.3°
